Regional Weather Roundup
Issued by NWS State College, PA

Home | Current Version | Previous Version | Text Only | Print | Product List | Glossary On
Versions: 1 2 3 4 5 6 7 8 9 10 11 12 13 14 15 16 17 18 19 20 21 22 23 24 25 26 27 28 29 30 31 32 33 34 35 36 37 38 39 40 41 42 43 44 45 46 47 48 49 50
000
ASUS41 KCTP 222010
RWRCTP

REGIONAL WEATHER ROUNDUP
NATIONAL WEATHER SERVICE STATE COLLEGE PA
400 PM EDT TUE APR 22 2014

Note: "fair" indicates few or no clouds below 12,000 feet with no
significant weather and/or obstructions to visibility.

* = STATION THAT DOES NOT REPORT PRECIPITATION /E.G. RAIN...SNOW...ETC/
    THUNDER OR FOG.

PAZ002>004-007>009-013>016-020>023-029>032-222100-
WESTERN PENNSYLVANIA

CITY           SKY/WX    TMP DP  RH WIND       PRES   REMARKS
ERIE           CLOUDY    44  36  73 W10       29.72F
MEADVILLE      CLOUDY    44  38  79 NW9       29.70S
FRANKLIN*      CLOUDY    46  39  76 NW10G18   29.70R
NEW CASTLE     CLOUDY    49  46  89 NW13G20   29.72R
BEAVER COUNTY  NOT AVBL
BUTLER*        PTSUNNY   55  48  76 W13G21    29.68R
PITTSBURGH INT CLOUDY    63  53  70 NW18      29.64F
PITTSBURGH     MOSUNNY   64  52  64 NW15G25   29.62R
INDIANA*       MOSUNNY   54  54 100 NW3       29.63F
LATROBE        TSTM      66  55  68 SW16G28   29.59F
WASHINGTON CO* PTSUNNY   64  48  55 NW17G29   29.66R
$$

PAZ004>006-010>012-017>019-024>028-033>037-041-042-045-046-049>053-222100-
CENTRAL PENNSYLVANIA

CITY           SKY/WX    TMP DP  RH WIND       PRES   REMARKS
BRADFORD       PTSUNNY   57  45  64 NW16G23   29.60S
DUBOIS         CLOUDY    58  55  90 W6        29.61S
CLEARFIELD     LGT RAIN  54  52  93 SW5       29.60F
JOHNSTOWN      MOSUNNY   60  51  72 W13       29.60F
ALTOONA        PTSUNNY   65  52  62 W12       29.61F
STATE COLLEGE  LGT RAIN  63  48  59 NW13G26   29.59F
WILLIAMSPORT   MOSUNNY   62  48  60 VRB5      29.56F
SELINSGROVE    CLOUDY    65  51  60 S8        29.57F
FT INDIANTOWN  CLOUDY    60  57  90 SW6       29.59F
CAPITAL CITY   CLOUDY    64  55  72 VRB5      29.59F
HARRISBURG     CLOUDY    65  54  67 CALM      29.59F
YORK           CLOUDY    64  55  72 SW6       29.60F
$$

PAZ038>040-043-044-047-048-054-055-060>062-067>071-222100-
EASTERN PENNSYLVANIA

CITY           SKY/WX    TMP DP  RH WIND       PRES   REMARKS
SCRANTON       CLOUDY    58  50  75 W8        29.56F
MOUNT POCONO   LGT RAIN  54  50  86 W10       29.58F
ALLENTOWN      CLOUDY    61  51  70 W9        29.59F
QUAKERTOWN*    CLOUDY    63  54  72 SW7       29.60F
READING        CLOUDY    60  54  80 SW10      29.59F
LANCASTER      CLOUDY    61  56  83 SW7       29.59F
COATESVILLE    CLOUDY    59  57  94 SW3       29.61F
POTTSTOWN      LGT RAIN  62  55  77 W7        29.61F
BLUE BELL      PTSUNNY   68  50  52 W6        29.59F
DOYLESTOWN     LGT RAIN  62  54  74 W10G20    29.58F
WILLOW GROVE   NOT AVBL
NORTH PHILA    CLOUDY    71  48  43 W15G24    29.59F
PHILADELPHIA   LGT RAIN  73  47  39 W22G28    29.59F
$$



USA.gov is the U.S. government's official web portal to all federal, state and local government web resources and services.